[[{"header":{"parameterUnit":"m.s-1","parameterCategory":1,"la1":30.2991,"la2":30.254,"lo1":-89.0895,"lo2":-89.0444,"dy":0.0017,"dx":0.0017,"nx":28,"ny":28,"refTime":"2026-01-04T03:00:00:Z","depth":0,"parameterNumber":2,"parameterNumberName":"U-component_of_WINDS"},"data":[0,0,0,0,0,0,0,0,0,0,0,0,0,0,0,0,0,0,0,0,0,0,0,0,0,0,0,0,0,0,0,0,0,0,0,0,0,0,0,0,0,0,0,0,0,0,0,0,0,0,0,0,0,0,0,0,0,0,-1.2758,-1.2759,0,-1.2865,-1.2866,-1.2867,-1.2878,-1.2877,-1.2876,-1.2875,-1.2991,-1.2995,-1.2999,0,0,0,0,0,0,0,0,0,0,0,0,0,-1.2572,-1.2575,-1.2758,-1.2759,-1.2761,-1.2864,-1.2866,-1.2867,-1.2878,-1.2877,-1.2876,-1.2874,-1.299,-1.2995,-1.3,0,0,0,0,0,0,0,0,0,0,0,0,0,-1.2663,-1.2576,-1.2758,-1.2779,-1.2781,-1.2864,-1.2866,-1.2868,-1.2879,-1.2877,-1.2875,-1.2874,-1.2988,-1.2994,-1.3,-1.3072,0,0,-1.3019,-1.3022,0,0,0,0,0,0,0,0,-1.2658,-1.267,-1.2774,-1.2777,-1.2781,-1.2856,-1.2843,-1.2937,-1.2879,-1.2842,-1.2875,-1.2873,-1.2948,-1.2958,-1.2981,-1.3078,-1.3083,-1.302,-1.3024,-1.3026,-1.3028,0,0,0,0,0,0,0,-1.2651,-1.2665,-1.2801,-1.2776,-1.278,-1.2785,-1.2796,-1.2861,-1.2904,-1.2845,-1.2846,-1.2858,-1.295,-1.2975,-1.2984,-1.3084,-1.302,-1.3025,-1.3029,-1.3032,-1.3247,-1.3249,0,0,0,0,0,0,-1.264,-1.266,-1.2797,-1.2804,-1.2714,-1.279,-1.2802,-1.2834,-1.2903,-1.2911,-1.286,-1.2858,-1.2966,-1.2977,-1.2988,-1.3079,-1.3026,-1.3032,-1.3036,-1.3245,-1.3248,-1.325,0,0,0,0,0,0,-1.2636,-1.2652,-1.2793,-1.2732,-1.275,-1.2795,-1.283,-1.2837,-1.2863,-1.2913,-1.2922,-1.2878,-1.2965,-1.298,-1.3051,-1.3083,-1.3035,-1.3041,-1.3243,-1.3246,-1.3249,-1.3259,0,0,0,0,0,0,-1.2631,-1.2651,-1.2677,-1.2733,-1.2754,-1.2852,-1.2832,-1.284,-1.2872,-1.2872,-1.2933,-1.2941,-1.2965,-1.3042,-1.3057,-1.3091,-1.3045,-1.324,-1.3244,-1.3248,-1.3256,-1.3262,-1.3267,0,0,0,0,0,-1.2624,-1.2677,-1.2678,-1.2695,-1.2787,-1.2853,-1.2866,-1.289,-1.2875,-1.2903,-1.2935,-1.2939,-1.3076,-1.3049,-1.3067,-1.3102,-1.3238,-1.3243,-1.3247,-1.3253,-1.3261,-1.3267,0,0,0,0,0,0,-1.2626,-1.2684,-1.2687,-1.2758,-1.28,-1.2855,-1.2891,-1.2896,-1.2946,-1.2943,-1.2973,-1.2987,-1.3058,-1.3087,-1.3055,-1.3176,-1.3156,-1.3164,-1.3155,-1.3162,-1.3167,-1.316,-1.3051,0,0,0,0,0,-1.2634,-1.2681,-1.273,-1.2789,-1.281,-1.2846,-1.2877,-1.2891,-1.2937,-1.2956,-1.2994,-1.3041,-1.3095,-1.313,-1.3182,-1.3259,-1.3275,-1.3293,-1.3298,-1.3302,-1.331,-1.3356,-1.3365,-1.3265,-1.3265,-1.3264,0,0,-1.2653,-1.269,-1.2719,-1.279,-1.2825,-1.2876,-1.2862,-1.2916,-1.2954,-1.2965,-1.3035,-1.3064,-1.3119,-1.3194,-1.3229,-1.3221,-1.3341,-1.3308,-1.3311,-1.3317,-1.3361,-1.3371,-1.3379,-1.3268,-1.3267,-1.3267,0,0,-1.2713,-1.2744,-1.2798,-1.2832,-1.2884,-1.2908,-1.292,-1.2974,-1.2994,-1.3063,-1.3073,-1.3121,-1.3212,-1.3251,-1.3282,-1.3357,-1.3364,-1.3373,-1.3403,-1.3447,-1.3455,-1.3462,-1.3492,-1.3502,-1.338,-1.338,-1.338,0,-1.273,-1.2804,-1.2825,-1.2879,-1.2911,-1.292,-1.2976,-1.3009,-1.3076,-1.31,-1.3088,-1.3204,-1.3241,-1.3326,-1.3344,-1.3369,-1.3387,-1.3368,-1.3452,-1.3459,-1.3467,-1.3495,-1.3506,-1.3381,-1.3381,-1.3381,-1.3381,0,-1.2824,-1.2876,-1.2913,-1.2975,-1.3011,-1.3066,-1.3097,-1.3132,-1.3143,-1.3169,-1.3242,-1.3286,-1.3348,-1.3369,-1.3382,-1.3458,-1.3451,-1.3445,-1.3426,-1.3477,-1.3504,-1.3515,-1.3383,-1.3382,-1.3382,-1.3382,0,0,-1.289,-1.2962,-1.2976,-1.3005,-1.3062,-1.3104,-1.316,-1.3218,-1.3249,-1.3294,-1.3344,-1.3421,-1.3416,-1.3452,-1.3469,-1.3507,-1.3567,-1.3497,-1.3499,-1.3511,-1.3656,-1.3662,-1.3674,-1.357,-1.3572,-1.3574,-1.3653,0,-1.2959,-1.3056,-1.3076,-1.3161,-1.3211,-1.322,-1.3269,-1.3311,-1.3337,-1.3384,-1.3414,-1.3469,-1.3457,-1.3479,-1.3517,-1.3551,-1.3597,-1.3545,-1.362,-1.3622,-1.3608,-1.3688,-1.3694,-1.3766,-1.3663,-1.3665,-1.3666,0,-1.3052,-1.3098,-1.3187,-1.3239,-1.3261,-1.3304,-1.336,-1.3404,-1.3453,-1.3469,-1.3509,-1.3522,-1.3583,-1.3559,-1.3645,-1.361,-1.3642,-1.3663,-1.3667,-1.3677,-1.3649,-1.3703,-1.379,-1.3802,-1.3683,-1.3682,-1.368,0,-1.3094,-1.3178,-1.3243,-1.3267,-1.3329,-1.3359,-1.3387,-1.3434,-1.3468,-1.3517,-1.3541,-1.3597,-1.3629,-1.3674,-1.3703,-1.3682,-1.3788,-1.3766,-1.3807,-1.3806,-1.3831,-1.3829,-1.3927,-1.3846,-1.3846,-1.3846,-1.3846,0,-1.317,-1.3225,-1.3263,-1.3303,-1.3366,-1.3389,-1.3452,-1.348,-1.3521,-1.3569,-1.3581,-1.3626,-1.366,-1.3711,-1.3734,-1.3804,-1.3817,-1.3835,-1.3841,-1.3835,-1.3833,-1.3858,-1.3855,-1.3849,-1.3848,-1.3848,-1.3847,0,-1.3229,-1.3256,-1.3328,-1.3379,-1.3393,-1.3438,-1.3483,-1.3524,-1.3549,-1.361,-1.3626,-1.3667,-1.3727,-1.376,-1.3836,-1.3851,-1.3931,-1.3933,-1.3914,-1.3917,-1.3957,-1.3954,-1.4076,-1.4094,-1.3999,-1.4,-1.4,0,-1.3277,-1.3319,-1.3375,-1.3406,-1.3434,-1.3485,-1.3519,-1.3544,-1.358,-1.3639,-1.3674,-1.3734,-1.3784,-1.3881,-1.3919,-1.3978,-1.3984,-1.4022,-1.3993,-1.3987,-1.3988,-1.3986,-1.3992,-1.4028,-1.4029,-1.403,-1.4031,0,-1.336,-1.3371,-1.3419,-1.3472,-1.3512,-1.3556,-1.3599,-1.3625,-1.3658,-1.3698,-1.3759,-1.3797,-1.3874,-1.3935,-1.3997,-1.4029,-1.4037,-1.4039,-1.4052,-1.4048,-1.4037,-1.4046,-1.3931,-1.4037,-1.4036,-1.4036,-1.4035,-1.4035,-1.3417,-1.3455,-1.3501,-1.3554,-1.3589,-1.3629,-1.367,-1.37,-1.375,-1.3813,-1.3825,-1.389,-1.394,-1.4023,-1.4056,-1.411,-1.4102,-1.4121,-1.4126,-1.4131,-1.4134,-1.4025,-1.4121,-1.4121,-1.412,-1.412,-1.412,0,-1.3503,-1.3532,-1.3581,-1.364,-1.3683,-1.3682,-1.373,-1.3767,-1.3823,-1.3867,-1.3916,-1.3987,-1.4046,-1.4088,-1.415,-1.4184,-1.419,-1.42,-1.4199,-1.4207,-1.4135,-1.4119,-1.4195,-1.4195,-1.4195,-1.4195,-1.4195,-1.4195,-1.3553,-1.3619,-1.3635,-1.372,-1.3749,-1.3811,-1.3839,-1.3877,-1.3912,-1.399,-1.4039,-1.4065,-1.411,-1.4174,-1.423,-1.4241,-1.4264,-1.4275,-1.4287,-1.422,-1.4212,-1.4204,-1.4189,-1.4279,-1.4279,-1.4355,-1.4355,-1.4356]},{"header":{"parameterUnit":"m.s-1","parameterCategory":1,"la1":30.2991,"la2":30.254,"lo1":-89.0895,"lo2":-89.0444,"dy":0.0017,"dx":0.0017,"nx":28,"ny":28,"refTime":"2026-01-04T03:00:00:Z","depth":0,"parameterNumber":3,"parameterNumberName":"V-component_of_WINDS"},"data":[0,0,0,0,0,0,0,0,0,0,0,0,0,0,0,0,0,0,0,0,0,0,0,0,0,0,0,0,0,0,0,0,0,0,0,0,0,0,0,0,0,0,0,0,0,0,0,0,0,0,0,0,0,0,0,0,0,0,-0.3602,-0.3602,0,-0.3582,-0.3582,-0.3582,-0.3523,-0.3522,-0.3521,-0.3519,-0.3503,-0.3504,-0.3504,0,0,0,0,0,0,0,0,0,0,0,0,0,-0.3595,-0.3595,-0.3602,-0.3602,-0.3602,-0.3582,-0.3582,-0.3581,-0.3523,-0.3522,-0.352,-0.3519,-0.3503,-0.3503,-0.3504,0,0,0,0,0,0,0,0,0,0,0,0,0,-0.3589,-0.3595,-0.3602,-0.357,-0.3567,-0.3582,-0.3582,-0.3581,-0.3524,-0.3522,-0.352,-0.3518,-0.3502,-0.3503,-0.3504,-0.355,0,0,-0.3508,-0.3508,0,0,0,0,0,0,0,0,-0.3589,-0.3589,-0.3575,-0.3573,-0.3569,-0.3553,-0.3573,-0.3571,-0.3524,-0.354,-0.3519,-0.3517,-0.3521,-0.3521,-0.3521,-0.3549,-0.3548,-0.3508,-0.3509,-0.3509,-0.351,0,0,0,0,0,0,0,-0.359,-0.359,-0.3594,-0.3575,-0.3572,-0.3558,-0.3555,-0.3572,-0.3542,-0.3539,-0.3535,-0.3533,-0.3519,-0.352,-0.3521,-0.3548,-0.3508,-0.3509,-0.351,-0.351,-0.3613,-0.3615,0,0,0,0,0,0,-0.3594,-0.359,-0.3595,-0.3594,-0.3574,-0.356,-0.3557,-0.356,-0.3542,-0.3537,-0.3534,-0.353,-0.3519,-0.3519,-0.352,-0.3573,-0.3509,-0.351,-0.3511,-0.3611,-0.3614,-0.3616,0,0,0,0,0,0,-0.3594,-0.3595,-0.3596,-0.3591,-0.359,-0.3562,-0.3567,-0.3561,-0.3562,-0.3538,-0.3533,-0.3541,-0.3518,-0.3518,-0.3543,-0.3571,-0.3511,-0.3512,-0.3609,-0.3612,-0.3615,-0.3679,0,0,0,0,0,0,-0.3594,-0.3595,-0.3612,-0.3592,-0.359,-0.3618,-0.3568,-0.3562,-0.3563,-0.3558,-0.3543,-0.3539,-0.3516,-0.3541,-0.3544,-0.3572,-0.3513,-0.3606,-0.361,-0.3614,-0.3674,-0.3684,-0.3692,0,0,0,0,0,-0.3594,-0.3631,-0.3613,-0.3614,-0.361,-0.362,-0.362,-0.3592,-0.3566,-0.3583,-0.3567,-0.3539,-0.3567,-0.3544,-0.3547,-0.3576,-0.3604,-0.3609,-0.3614,-0.367,-0.3682,-0.3692,0,0,0,0,0,0,-0.3657,-0.3628,-0.3607,-0.3639,-0.3632,-0.361,-0.3631,-0.3605,-0.3607,-0.3602,-0.3569,-0.3566,-0.3596,-0.3587,-0.3563,-0.3619,-0.3581,-0.3587,-0.3623,-0.3634,-0.3643,-0.3646,-0.3514,0,0,0,0,0,-0.3674,-0.3683,-0.3658,-0.3688,-0.3686,-0.3659,-0.3662,-0.3641,-0.3634,-0.3631,-0.3618,-0.3613,-0.3621,-0.3627,-0.3632,-0.3672,-0.3669,-0.3693,-0.3702,-0.3709,-0.3715,-0.3737,-0.3748,-0.3631,-0.3631,-0.3631,0,0,-0.371,-0.3696,-0.3704,-0.3701,-0.3693,-0.3705,-0.3657,-0.3672,-0.3681,-0.3634,-0.3657,-0.3646,-0.3639,-0.3671,-0.3685,-0.3666,-0.3746,-0.3715,-0.3721,-0.3723,-0.3743,-0.3754,-0.3764,-0.3634,-0.3634,-0.3633,0,0,-0.3783,-0.3772,-0.3796,-0.379,-0.3778,-0.376,-0.3766,-0.3747,-0.3739,-0.376,-0.3726,-0.3736,-0.375,-0.3746,-0.3746,-0.3816,-0.3791,-0.3819,-0.3867,-0.3889,-0.3898,-0.3906,-0.3933,-0.3943,-0.3824,-0.3825,-0.3825,0,-0.383,-0.3846,-0.3813,-0.3829,-0.383,-0.3786,-0.3812,-0.3807,-0.3799,-0.3801,-0.3778,-0.3795,-0.3786,-0.3818,-0.3835,-0.3836,-0.3843,-0.3822,-0.3899,-0.3907,-0.3914,-0.3939,-0.3949,-0.3828,-0.3828,-0.3827,-0.3827,0,-0.3905,-0.3916,-0.3937,-0.3929,-0.3932,-0.3953,-0.3924,-0.3931,-0.3909,-0.3894,-0.3917,-0.3905,-0.3908,-0.3914,-0.3893,-0.3943,-0.3931,-0.3904,-0.3866,-0.3929,-0.3953,-0.3962,-0.3834,-0.3832,-0.3831,-0.383,0,0,-0.4019,-0.3991,-0.4,-0.3996,-0.398,-0.3988,-0.4008,-0.4009,-0.4016,-0.4012,-0.4029,-0.4041,-0.4015,-0.4015,-0.3994,-0.4013,-0.4072,-0.3984,-0.3983,-0.4002,-0.4128,-0.415,-0.4162,-0.4053,-0.4055,-0.4057,-0.4129,0,-0.4089,-0.4119,-0.409,-0.4127,-0.4138,-0.4096,-0.4114,-0.4106,-0.4092,-0.41,-0.4085,-0.4095,-0.4059,-0.4059,-0.4076,-0.4061,-0.4097,-0.4055,-0.4071,-0.4072,-0.4077,-0.4173,-0.4197,-0.4266,-0.4138,-0.4139,-0.414,0,-0.4175,-0.4174,-0.4212,-0.4193,-0.4197,-0.4213,-0.4212,-0.4219,-0.4211,-0.4199,-0.4199,-0.4172,-0.4191,-0.4152,-0.4179,-0.4152,-0.4156,-0.415,-0.4152,-0.4155,-0.4112,-0.4181,-0.4287,-0.4299,-0.4154,-0.4153,-0.4152,0,-0.4257,-0.4264,-0.4288,-0.4286,-0.4264,-0.4277,-0.4269,-0.4258,-0.4261,-0.426,-0.4262,-0.4264,-0.4266,-0.4269,-0.4245,-0.4218,-0.4276,-0.4234,-0.4269,-0.427,-0.4285,-0.4285,-0.4396,-0.4284,-0.4284,-0.4284,-0.4283,0,-0.434,-0.4365,-0.4324,-0.434,-0.4367,-0.4333,-0.4362,-0.435,-0.434,-0.4353,-0.4317,-0.433,-0.4296,-0.4306,-0.4286,-0.4313,-0.4314,-0.4306,-0.4302,-0.4311,-0.4312,-0.4316,-0.4311,-0.4286,-0.4286,-0.4285,-0.4285,0,-0.4437,-0.441,-0.4434,-0.4411,-0.4406,-0.4428,-0.4409,-0.4423,-0.4405,-0.4422,-0.4424,-0.4398,-0.4408,-0.4382,-0.4389,-0.4376,-0.4415,-0.4401,-0.4418,-0.4415,-0.4452,-0.4449,-0.4571,-0.4586,-0.4462,-0.4463,-0.4464,0,-0.4493,-0.4511,-0.449,-0.4496,-0.4489,-0.4498,-0.4501,-0.4468,-0.4473,-0.4464,-0.4479,-0.4486,-0.4489,-0.4508,-0.449,-0.4495,-0.4483,-0.4524,-0.4483,-0.4493,-0.4486,-0.4486,-0.4489,-0.4534,-0.4536,-0.4537,-0.4538,0,-0.4596,-0.4581,-0.4585,-0.4585,-0.4589,-0.4588,-0.4584,-0.4591,-0.4556,-0.4563,-0.4572,-0.4575,-0.4581,-0.4589,-0.4589,-0.4582,-0.4556,-0.455,-0.4559,-0.4571,-0.4581,-0.4578,-0.4444,-0.4549,-0.4547,-0.4547,-0.4546,-0.4546,-0.4675,-0.469,-0.4678,-0.4684,-0.4677,-0.4674,-0.4687,-0.467,-0.4676,-0.4678,-0.4658,-0.4672,-0.4663,-0.4661,-0.4657,-0.4669,-0.465,-0.4662,-0.4665,-0.467,-0.4677,-0.4576,-0.4668,-0.4668,-0.4668,-0.4667,-0.4667,0,-0.4778,-0.4768,-0.4773,-0.4769,-0.4774,-0.4745,-0.474,-0.4747,-0.4759,-0.4752,-0.4756,-0.4767,-0.4774,-0.4756,-0.4761,-0.4774,-0.4762,-0.4777,-0.4777,-0.4776,-0.4692,-0.4685,-0.4787,-0.4787,-0.4787,-0.4787,-0.4787,-0.4786,-0.4832,-0.4857,-0.4841,-0.4862,-0.4851,-0.4863,-0.4863,-0.4861,-0.4855,-0.4869,-0.4874,-0.4862,-0.4851,-0.4855,-0.4861,-0.4855,-0.486,-0.488,-0.4871,-0.4793,-0.4782,-0.4771,-0.4764,-0.4881,-0.4881,-0.4954,-0.4955,-0.4956]}]]